Tracking 19489 objects as of 23-Jan-2019
HD Live streaming from Space Station
objects crossing your sky now

SL-16 R/B

Track SL-16 R/B now!
10-day predictions
SL-16 R/B is classified as:


NORAD ID: 22220
Int'l Code: 1992-076B
Perigee: 836.9 km
Apogee: 852.2 km
Inclination: 71.0 °
Period: 101.7 minutes
Semi major axis: 7215 km
RCS: 15.162 m2 (large)
Launch date: November 17, 1992
Source: Commonwealth of Independent States (former USSR) (CIS)
Launch site: TYURATAM MISSILE AND SPACE COMPLEX (TTMTR)

Note: This is a ROCKET BODY
aabbcc
Your satellite tracking list
Your tracking list is empty




NASA's NSSDC Master Catalog

Two Line Element Set (TLE):
1 22220U 92076B   19022.16078953  .00000175  00000-0  11206-3 0  9991
2 22220  70.9998 269.9849 0010647 106.2236   5.4470 14.16441088353465
Source of the keplerian elements: AFSPC